Find Starlink 4132

NORAD ID: 53252 Int'l Des: 2022-086 Owner: SPXS Country: US Constellation: starlink operational
LEOCIRCULAR

現在のビュー

3D地球を読み込み中...

About Starlink 4132

Starlink 4132 (NORAD 53252) is a starlink constellation satellite (v1.5) launched Jul 24, 2022 by SPXS of US. It operates in LEO, CIRCULAR orbit with a mass of 297.00 kg.

Starlink 4132について

説明を読み込み中...

次回通過

Passes for default location (London). Set your location on the main map for personalized predictions.

高度履歴

Loading altitude history...

軌道要素

1 53252U 22086L 26166.14508402 -.00000414 00000-0 -78942-5 0 9996
2 53252 53.1612 116.4952 0001370 88.5691 271.5458 15.08833782215794
Epoch: Jun 15, 2026 • Age: 14 hours

現在のステータス

高度 551.0 km
速度 7.59 km/s
衛星直下点 -33.74°S, 83.96°W
打ち上げ日 Jul 24, 2022
運用期間 3.8 years
タイプ internet

技術仕様

分類 Payload
質量 297.00 kg
乾燥質量 275.00 kg
総質量 297.00 kg
長さ 0.20 m
直径 2.80 m
スパン 9.00 m
形状 Box + pan
製造者 SPXS
バスタイプ Starlink
フェーズステータス In Orbit
所有者/国 SPXS/US

Most Searched